EW6013 Weather Reports


time (UTC)temp
C
wind
direction
speed
KPH
gust
KPH
rain 1hr
cm
rain 24hr
cm
rain mn
cm
humidity
%
barometer
mb
20260504214015 21 235 1.6 14.5 0.00 0.00 0.00 33 1003.5
20260504213515 21 0.0 0.0 0.00 0.00 0.00 33 1003.5
20260504213015 21 0.0 1.6 0.00 0.00 0.00 33 1003.5
20260504212515 21 226 0.0 1.6 0.00 0.00 0.00 34 1003.5
20260504212015 21 0.0 1.6 0.00 0.00 0.00 34 1003.5
20260504211515 21 238 0.0 1.6 0.00 0.00 0.00 34 1003.5
20260504211015 21 0.0 1.6 0.00 0.00 0.00 34 1003.5
20260504210515 21 248 0.0 1.6 0.00 0.00 0.00 34 1003.6
20260504210015 21 277 0.0 17.7 0.00 0.00 0.00 34 1003.5
20260504205515 21 199 3.2 17.7 0.00 0.00 0.00 32 1003.5
20260504205015 21 222 0.0 16.1 0.00 0.00 0.00 33 1003.5
20260504204515 21 286 0.0 20.9 0.00 0.00 0.00 33 1003.5
20260504204015 21 286 3.2 27.4 0.00 0.00 0.00 33 1003.5
20260504203515 21 286 4.8 27.4 0.00 0.00 0.00 34 1003.5
20260504203015 21 247 4.8 27.4 0.00 0.00 0.00 33 1003.4
20260504202515 21 231 0.0 16.1 0.00 0.00 0.00 33 1003.5
20260504202015 21 0.0 0.0 0.00 0.00 0.00 33 1003.5
20260504201535 21 0.0 0.0 0.00 0.00 0.00 33 1003.5
20260504201015 22 0.0 0.0 0.00 0.00 0.00 32 1003.6
20260504200515 21 0.0 0.0 0.00 0.00 0.00 34 1003.5
20260504200015 21 0.0 1.6 0.00 0.00 0.00 34 1003.5
20260504195515 21 267 0.0 1.6 0.00 0.00 0.00 32 1003.5
20260504195014 21 0.0 9.7 0.00 0.00 0.00 32 1003.6
20260504194535 22 233 0.0 20.9 0.00 0.00 0.00 31 1003.7
20260504194035 22 236 3.2 20.9 0.00 0.00 0.00 31 1003.6
20260504193514 22 51 0.0 20.9 0.00 0.00 0.00 31 1003.6
20260504193017 22 196 1.6 20.9 0.00 0.00 0.00 31 1003.6
20260504192537 22 239 3.2 16.1 0.00 0.00 0.00 32 1003.6
20260504192016 22 316 0.0 30.6 0.00 0.00 0.00 31 1003.6
20260504191516 22 291 3.2 30.6 0.00 0.00 0.00 32 1003.7
20260504191017 22 190 0.0 4.8 0.00 0.00 0.00 31 1003.8
20260504190517 22 219 0.0 6.4 0.00 0.00 0.00 31 1003.8
20260504190016 22 218 0.0 25.7 0.00 0.00 0.00 31 1003.8
20260504185517 22 266 3.2 25.7 0.00 0.00 0.00 32 1003.9
20260504185016 22 207 0.0 6.4 0.00 0.00 0.00 32 1003.9
20260504184516 22 266 0.0 17.7 0.00 0.00 0.00 33 1004.0
20260504184016 21 231 4.8 17.7 0.00 0.00 0.00 32 1004.0
20260504183517 21 198 0.0 4.8 0.00 0.00 0.00 32 1004.1
20260504183016 21 0.0 0.0 0.00 0.00 0.00 32 1004.3
20260504182516 21 0.0 0.0 0.00 0.00 0.00 32 1004.1
20260504182017 21 0.0 1.6 0.00 0.00 0.00 31 1004.3
20260504181516 21 264 0.0 1.6 0.00 0.00 0.00 32 1004.3
20260504181016 21 0.0 0.0 0.00 0.00 0.00 31 1004.3
20260504180516 21 0.0 19.3 0.00 0.00 0.00 32 1004.3
20260504180016 21 275 3.2 19.3 0.00 0.00 0.00 34 1004.3
20260504175516 21 0.0 1.6 0.00 0.00 0.00 32 1004.2
20260504175016 21 169 0.0 1.6 0.00 0.00 0.00 32 1004.2
20260504174557 21 153 0.0 1.6 0.00 0.00 0.00 31 1004.4
20260504174016 21 277 0.0 1.6 0.00 0.00 0.00 32 1004.4
20260504173536 20 190 0.0 1.6 0.00 0.00 0.00 33 1004.5
20260504173016 20 345 0.0 11.3 0.00 0.00 0.00 32 1004.5
20260504172516 20 191 0.0 14.5 0.00 0.00 0.00 33 1004.5
20260504172016 20 204 0.0 14.5 0.00 0.00 0.00 33 1004.6
20260504171536 20 0.0 0.0 0.00 0.00 0.00 33 1004.5
20260504171016 20 0.0 1.6 0.00 0.00 0.00 33 1004.7
20260504170516 20 249 0.0 1.6 0.00 0.00 0.00 34 1004.8
20260504151016 18 213 0.0 16.1 0.00 0.00 0.00 39 1005.9
20260504150516 18 213 1.6 16.1 0.00 0.00 0.00 39 1005.9
20260504141016 16 0.0 3.2 0.00 0.00 0.00 43 1006.3
20260504140516 16 349 0.0 3.2 0.00 0.00 0.00 44 1006.4
20260504130516 13 0.0 1.6 0.00 0.00 0.00 52 1007.2
20260504110515 6 0.0 0.0 0.00 0.00 0.00 79 1007.6
20260504081535 5 0.0 0.0 0.00 0.00 0.00 84 1007.6
20260504081015 5 0.0 0.0 0.00 0.00 0.00 84 1007.6
20260504080515 5 0.0 0.0 0.00 0.00 0.00 84 1007.6
20260504050517 2 0.0 0.0 0.00 0.00 0.00 84 1007.5
20260504050016 1 0.0 0.0 0.00 0.00 0.00 85 1007.5
20260504045536 1 0.0 0.0 0.00 0.00 0.00 86 1007.5
20260504045037 1 0.0 0.0 0.00 0.00 0.00 87 1007.5
20260504044516 1 0.0 0.0 0.00 0.00 0.00 87 1007.5
20260504044016 1 0.0 0.0 0.00 0.00 0.00 87 1007.6
20260504043517 1 0.0 0.0 0.00 0.00 0.00 87 1007.6
20260504043017 1 0.0 0.0 0.00 0.00 0.00 87 1007.5
20260504042516 1 0.0 0.0 0.00 0.00 0.00 87 1007.5
20260504042037 1 0.0 0.0 0.00 0.00 0.00 86 1007.5
20260504041517 1 0.0 0.0 0.00 0.00 0.00 86 1007.4
20260504041016 1 0.0 0.0 0.00 0.00 0.00 86 1007.4
20260504040536 1 0.0 0.0 0.00 0.00 0.00 86 1007.3
20260504040016 1 0.0 0.0 0.00 0.00 0.00 85 1007.4
20260504035536 1 0.0 0.0 0.00 0.00 0.00 85 1007.3
20260504035016 1 0.0 0.0 0.00 0.00 0.00 85 1007.3
20260504034516 1 0.0 0.0 0.00 0.00 0.00 85 1007.2
20260504034016 1 0.0 0.0 0.00 0.00 0.00 85 1007.2
20260504033516 1 0.0 0.0 0.00 0.00 0.00 85 1007.2
20260504033016 1 0.0 0.0 0.00 0.00 0.00 84 1007.2
20260504032556 1 0.0 0.0 0.00 0.00 0.00 84 1007.2
20260504032036 1 0.0 0.0 0.00 0.00 0.00 83 1007.1
20260504031516 2 0.0 0.0 0.00 0.00 0.00 83 1007.1
20260504031016 2 0.0 0.0 0.00 0.00 0.00 82 1007.1
20260504030516 2 0.0 0.0 0.00 0.00 0.00 82 1007.0
20260504030016 2 0.0 0.0 0.00 0.00 0.00 82 1007.1
20260504025516 2 0.0 0.0 0.00 0.00 0.00 81 1007.1
20260504025016 2 0.0 0.0 0.00 0.00 0.00 81 1007.0
20260504024516 2 0.0 0.0 0.00 0.00 0.00 81 1007.1
20260504024016 2 0.0 0.0 0.00 0.00 0.00 80 1007.0
20260504023516 2 0.0 0.0 0.00 0.00 0.00 80 1007.0
20260504023016 2 0.0 0.0 0.00 0.00 0.00 80 1007.0
20260504022516 2 0.0 0.0 0.00 0.00 0.00 80 1007.0
20260504022016 2 0.0 0.0 0.00 0.00 0.00 79 1007.0
20260504021536 3 0.0 0.0 0.00 0.00 0.00 78 1007.0
20260504021016 3 0.0 0.0 0.00 0.00 0.00 77 1007.0
20260504020516 3 0.0 0.0 0.00 0.00 0.00 77 1007.0
20260504020016 3 0.0 0.0 0.00 0.00 0.00 76 1006.9
20260504015516 3 0.0 0.0 0.00 0.00 0.00 75 1006.9
20260504015016 3 0.0 0.0 0.00 0.00 0.00 74 1006.9
20260504014516 3 0.0 0.0 0.00 0.00 0.00 73 1006.8
20260504014016 3 0.0 0.0 0.00 0.00 0.00 73 1006.8
20260504013516 4 0.0 0.0 0.00 0.00 0.00 73 1006.8
20260504013036 4 0.0 0.0 0.00 0.00 0.00 71 1006.7
20260504012516 4 0.0 0.0 0.00 0.00 0.00 71 1006.7
20260504012016 5 0.0 0.0 0.00 0.00 0.00 70 1006.6
20260504011516 5 0.0 0.0 0.00 0.00 0.00 68 1006.6
20260504011016 5 0.0 0.0 0.00 0.00 0.00 67 1006.5
20260504010516 5 0.0 0.0 0.00 0.00 0.00 66 1006.4
20260504010016 5 0.0 0.0 0.00 0.00 0.00 65 1006.3
20260504005516 6 0.0 0.0 0.00 0.00 0.00 65 1006.3
20260504005016 6 0.0 0.0 0.00 0.00 0.00 64 1006.2
20260504004515 6 0.0 0.0 0.00 0.00 0.00 63 1006.2
20260504004056 7 0.0 0.0 0.00 0.00 0.00 62 1006.1
20260504003516 7 0.0 0.0 0.00 0.00 0.00 60 1006.1
20260504003016 7 0.0 0.0 0.00 0.00 0.00 58 1006.1
20260504002515 7 0.0 0.0 0.00 0.00 0.00 58 1006.0
20260504002016 7 0.0 0.0 0.00 0.00 0.00 56 1005.9
20260504001516 8 0.0 0.0 0.00 0.00 0.00 54 1005.8
20260504001016 8 0.0 0.0 0.00 0.00 0.00 54 1005.8
20260504000516 8 0.0 0.0 0.00 0.00 0.00 52 1005.7
20260504000016 8 0.0 0.0 0.00 0.00 0.00 50 1005.7
20260503235516 9 0.0 0.0 0.00 0.00 0.00 50 1005.7
20260503235015 9 0.0 0.0 0.00 0.00 0.00 49 1005.6
20260503234515 9 0.0 0.0 0.00 0.00 0.00 48 1005.6
20260503234015 10 0.0 0.0 0.00 0.00 0.00 49 1005.6
20260503233516 10 0.0 0.0 0.00 0.00 0.00 47 1005.5
20260503233016 10 0.0 0.0 0.00 0.00 0.00 47 1005.5
20260503232515 10 0.0 0.0 0.00 0.00 0.00 46 1005.5
20260503232016 10 0.0 0.0 0.00 0.00 0.00 46 1005.4
20260503231515 10 0.0 0.0 0.00 0.00 0.00 46 1005.3
20260503231016 10 0.0 8.0 0.00 0.00 0.00 47 1005.3
20260503230535 10 300 0.0 8.0 0.00 0.00 0.00 45 1005.2
20260503230015 10 0.0 0.0 0.00 0.00 0.00 44 1005.1
20260503225515 10 0.0 0.0 0.00 0.00 0.00 44 1005.2
20260503225015 10 0.0 0.0 0.00 0.00 0.00 44 1005.1
20260503224515 10 0.0 0.0 0.00 0.00 0.00 43 1005.1
20260503224015 10 0.0 1.6 0.00 0.00 0.00 43 1005.0
20260503223515 10 283 0.0 1.6 0.00 0.00 0.00 43 1005.0
20260503223036 10 0.0 0.0 0.00 0.00 0.00 43 1005.0
20260503222515 11 0.0 0.0 0.00 0.00 0.00 42 1004.9
20260503222016 11 0.0 0.0 0.00 0.00 0.00 43 1004.8
20260503221515 11 0.0 1.6 0.00 0.00 0.00 43 1004.7
20260503221015 11 271 0.0 1.6 0.00 0.00 0.00 43 1004.8
20260503220615 11 0.0 17.7 0.00 0.00 0.00 42 1004.8
20260503220015 11 272 0.0 17.7 0.00 0.00 0.00 41 1004.7
20260503215515 11 261 0.0 9.7 0.00 0.00 0.00 41 1004.6
20260503215015 11 303 0.0 9.7 0.00 0.00 0.00 42 1004.6
20260503214515 11 304 0.0 20.9 0.00 0.00 0.00 41 1004.5